Regional Weather Roundup
Issued by NWS

Home | Current Version | Previous Version | Text Only | Print | Product List | Glossary Off
Versions: 1 2 3 4 5 6 7 8 9 10 11 12 13 14 15 16 17 18 19 20 21 22 23 24 25 26 27 28 29 30 31 32 33 34 35 36 37 38 39 40 41 42 43 44 45 46 47 48 49 50

000
ASUS43 KLOT 312312
RWRIL

ILLINOIS REGIONAL WEATHER ROUNDUP
NATIONAL WEATHER SERVICE CHICAGO/ROMEOVILLE IL
600 PM CDT MON AUG 31 2015

NOTE: "FAIR" INDICATES FEW OR NO CLOUDS BELOW 12,000 FEET WITH NO
SIGNIFICANT WEATHER AND/OR OBSTRUCTIONS TO VISIBILITY.

* THESE STATIONS ARE NOT UNDER NWS QUALITY CONTROL. THEY ALSO MAY NOT
  REPORT WEATHER SUCH AS PRECIPITATION OR FOG.

ILZ001-002-007-009-015-016-024-010000-
NORTHWEST ILLINOIS

CITY           SKY/WX    TMP DP  RH WIND       PRES   REMARKS
MOLINE         SUNNY     86  72  62 S7        29.98R HX  92
STERLING*      SUNNY    N/A N/A N/A CALM      29.97F
SAVANNA*       SUNNY     85  69  57 SE5       29.99S HX  89
$$

ILZ003-004-008-010-011-017-018-010000-
NORTH CENTRAL ILLINOIS

CITY           SKY/WX    TMP DP  RH WIND       PRES   REMARKS
ROCKFORD       MOSUNNY   83  69  62 S6        30.02S HX  86
FREEPORT*      SUNNY     81  70  68 S3        30.02F HX  84
ROCHELLE*      SUNNY     82  71  67 CALM      30.02S HX  87
DE KALB*       SUNNY     82  72  71 S5        30.03S HX  86
PERU*          SUNNY     85  66  51 S6        30.01S HX  87
$$

ILZ005-006-012>014-019>023-010000-
NORTHEAST ILLINOIS

CITY           SKY/WX    TMP DP  RH WIND       PRES   REMARKS
CHICAGO-OHARE  MOSUNNY   84  67  56 S8        30.01S HX  86
CHICAGO-MIDWAY MOSUNNY   86  67  52 SW7       30.01S HX  89
AURORA         SUNNY     84  70  62 S3        30.02S HX  88
LANSING*       SUNNY     84  67  57 SW6       30.02R HX  86
JOLIET*        SUNNY     86  70  58 CALM      30.01S HX  90
WAUKEGAN       SUNNY     74  66  76 SE7       30.02S
DUPAGE AIRPORT SUNNY     83  69  62 S6        30.01S HX  86
KANKAKEE*      MOSUNNY   83  72  69 S3        30.03S HX  88
WHEELING       SUNNY     80  68  66 E5        30.03R HX  83
MORRIS*        SUNNY     83  71  66 S6        30.00S HX  88
ROMEOVILLE*    SUNNY     83  66  55 SW6       30.02R HX  85
NORTHERLY ISL    N/A     75  67  76 NE1         N/A
$$

LMZ740>746-010000-
SOUTHERN LAKE MICHIGAN

STATION/POSITION SKY/WX   TEMP    WIND        PRES    VSBY  WAVE
                          AIR SEA DIR/SP/G                  HT/PER
                          (F)     (DEG/KT/KT) (MB)    (MI)  (FT/S)
SOUTHERN BUOY              70 71  130/  4/  6 1016.4F         0
WILMETTE HARBOR            70 65   CALM  /  2   N/A           0
HARRISON CRIB              72      90/  8/  8   N/A
BURNHAM HARBOR             75      CALM  /  2   N/A
CALUMET HARBOR             75      40/  4/  5   N/A
BURNS HARBOR               75      80/ 10/ 11 1016.9F
MICHIGAN CITY              73      40/  8/  9   N/A
MICHIGAN CITY 6N           74 73   90/  8/  8   N/A           0
ST. JOSEPH                 73 73  100/  6/  8   N/A           0
$$

ILZ025>027-034>036-040-047-049-050-058-095>099-010000-
WEST-CENTRAL ILLINOIS

CITY           SKY/WX    TMP DP  RH WIND       PRES   REMARKS
QUINCY         MOSUNNY   87  71  58 SE8       29.98S HX  93
GALESBURG*     SUNNY     85  72  65 S3        29.99S HX  90
MACOMB*        SUNNY     88  69  53 S5        30.01R HX  92
JACKSONVILLE*  SUNNY     89  71  56 S8        29.99S HX  95
PITTSFIELD*    SUNNY     88  72  57 S8        30.01R HX  95
$$

ILZ028>032-037-038-041>044-048-051>054-059>061-010000-
CENTRAL ILLINOIS

CITY           SKY/WX    TMP DP  RH WIND       PRES   REMARKS
PONTIAC        SUNNY     86  72  62 S6        30.02S HX  92
BLOOMINGTON    SUNNY     85  73  67 S10       30.04R HX  91
DECATUR        SUNNY     85  69  58 S8        30.03R HX  89
PEORIA         MOSUNNY   87  70  56 S7        30.00S HX  92
LACON*         SUNNY     86  70  60 SE3       29.99S HX  90
LINCOLN*       MOSUNNY   87  71  58 S7        30.00R HX  92
SPRINGFIELD    SUNNY     88  71  57 S10       30.00S HX  94
TAYLORVILLE    SUNNY     84  72  65 S7        30.02S HX  89
$$

ILZ033-039-045-046-055>057-062-063-010000-
EAST-CENTRAL ILLINOIS

CITY           SKY/WX    TMP DP  RH WIND       PRES   REMARKS
CHAMPAIGN      MOSUNNY   84  69  60 S8        30.04S HX  88
RANTOUL*       MOSUNNY   86  72  62 S6        30.03S HX  92
MATTOON        SUNNY     82  67  60 S9        30.04S HX  84
PARIS*         MOSUNNY   84  70  62 S3        30.05S HX  88
$$

ILZ079-100>102-010000-
SOUTHWEST ILLINOIS

CITY           SKY/WX    TMP DP  RH WIND       PRES   REMARKS
BELLEVILLE     SUNNY     83  75  75 VRB3      30.01R HX  91
CAHOKIA*       LGT RAIN  79  72  79 SE10      30.01S HX  82
SPARTA*        SUNNY     84  73  68 SE8       30.04S HX  90
$$

ILZ064>066-069>071-074>076-080>082-084>086-088>090-092>094-010000-
SOUTH-CENTRAL ILLINOIS

CITY           SKY/WX    TMP DP  RH WIND       PRES   REMARKS
CARBONDALE     SUNNY     84  70  62 S9        30.04S HX  88
CAIRO*         SUNNY     84  74  70 SE6       30.05S HX  91
EFFINGHAM*     SUNNY     84  68  58 SE5       30.05F HX  86
MARION         MOSUNNY   86  70  58 S7        30.06R HX  90
MT. VERNON     SUNNY     86  70  58 S8        30.05S HX  90
SALEM*         MOSUNNY   87  69  56 S7        30.03S HX  91
METROPOLIS*    MOSUNNY   85  73  67 S6        30.06S HX  91
$$

ILZ067-068-072-073-078-083-087-091-010000-
SOUTHEAST ILLINOIS

CITY           SKY/WX    TMP DP  RH WIND       PRES   REMARKS
LAWRENCEVILLE  MOSUNNY   85  68  56 S8        30.05S HX  88
FLORA*         SUNNY     85  67  54 S7        30.04S HX  88
FAIRFIELD*     MOSUNNY   85  68  56 S9        30.04S HX  89
HARRISBURG*    SUNNY     85  69  58 S8        30.05S HX  89
ROBINSON*      MOSUNNY   83  67  58 S6        30.06R HX  86
CARMI*         SUNNY     83  69  62 S7        30.05R HX  87
$$

ABBREVIATIONS USED IN REMARKS
   TC - TEMPERATURE IN CELSIUS
  WCI - WIND CHILL INDEX
   HX - HEAT INDEX
  VSB - VISIBILITY
$$



USA.gov is the U.S. government's official web portal to all federal, state and local government web resources and services.